Hourly Data Report for May 09, 2012

All times are specified in Local Standard Time (LST). Add 1 hour to adjust for Daylight Saving Time where and when it is observed.

OTTAWA INTL A
ONTARIO

45°19'00.000" N
75°40'00.000" W
114.90 m
6106001
71628
YOW

Download Data

Hourly Data (May 2012)
Hourly Data Report for May 9, 2012
Temp Definition
°C
Dew Point Temp Definition
°C
Rel Hum Definition
%
Wind Dir Definition
10's deg

Wind Spd Definition
km/h
Visibility Definition
km
Stn Press Definition
kPa
Hmdx Definition


Wind Chill Definition


Weather Definition


TIME
00:00 Legend Double Dagger 13.2 13.1 99   0 8.1 99.27     Fog
01:00 Legend Double Dagger 13.1 13.0 99 27 4 6.4 99.24     Fog
02:00 Legend Double Dagger 12.8 12.7 99 29 11 4.8 99.23     Drizzle,Fog
03:00 Legend Double Dagger 12.6 12.5 99 14 4 8.1 99.15     Drizzle,Fog
04:00 Legend Double Dagger 12.6 12.6 100 25 5 4.8 99.16     Drizzle,Fog
05:00 Legend Double Dagger 12.5 12.5 100 24 12 8.1 99.18     Drizzle,Fog
06:00 Legend Double Dagger 12.6 12.5 99 25 8 10.0 99.19     LegendNANA
07:00 Legend Double Dagger 13.6 12.8 95 26 11 10.0 99.21     Cloudy
08:00 Legend Double Dagger 14.2 12.4 89 22 10 10.0 99.20     LegendNANA
09:00 Legend Double Dagger 15.3 12.3 82 21 5 10.0 99.17     LegendNANA
10:00 Legend Double Dagger 15.8 11.8 77 17 9 10.0 99.14     Mostly Cloudy
11:00 Legend Double Dagger 16.5 11.9 74 18 11 10.0 99.12     LegendNANA
12:00 Legend Double Dagger 17.3 12.1 71 26 7 10.0 99.04     LegendNANA
13:00 Legend Double Dagger 19.1 13.6 70 14 15 10.0 98.95     Mainly Clear
14:00 Legend Double Dagger 18.3 11.0 62 19 16 10.0 98.86     LegendNANA
15:00 Legend Double Dagger 19.3 11.2 59 21 14 10.0 98.77     LegendNANA
16:00 Legend Double Dagger 18.0 11.6 66 18 20 10.0 98.77     Mostly Cloudy
17:00 Legend Double Dagger 17.2 10.6 65 19 13 10.0 98.73     LegendNANA
18:00 Legend Double Dagger 15.2 9.6 69 34 24 10.0 98.74     Thunderstorms
19:00 Legend Double Dagger 12.2 11.4 95 27 26 6.4 98.95     Moderate Rain Showers,Fog
20:00 Legend Double Dagger 11.6 10.7 94 31 14 10.0 98.85     LegendNANA
21:00 Legend Double Dagger 11.2 10.3 94 27 12 10.0 98.88     LegendNANA
22:00 Legend Double Dagger 10.4 9.3 93 27 17 10.0 98.93     Mostly Cloudy
23:00 Legend Double Dagger 9.5 8.0 90 28 21 10.0 98.92     LegendNANA

Notes on Data Quality.

Legend

  • E = Estimated
  • M = Missing
  • NA = Not Available
  • ‡ = Partner data that is not subject to review by the National Climate Archives
Date modified: